www.pogodaiklimat.ru

Погода и климат >> Архив погоды >> Япония >> Симоносеки


ПОГОДА в Симоносеки

  • Прогноз погоды в Симоносеки
  • Монитор погоды в Симоносеки

АРХИВ ПОГОДЫ в Симоносеки

Время (UTC), дата Ветер
(напр.,м/с)
 
Видим.   Явления Облачность Т
(С)
Тd
(С)
f
(%)
Тe
(С)
Тes
(С)
Комфортность P
(гПа)
Po
(гПа)
Тmin
(С)
Tmax
(С)
R
(мм)
R24
(мм)
S
(см)
22 11.07 З 5 н/о н/о +23.7 +18.8 74 +28 +28 душно 1007.9 1005.7
23 11.07 З 5 н/о н/о +24.1 +19.0 73 +29 +29 душно 1008.4 1006.2
00 12.07 З 6 20 км 10/9 300 м
[Cu Sc Ac As]
+23.9 +19.6 77 +29 +29 душно 1008.0 1005.8 +23.3
01 12.07 З 5 н/о н/о +23.8 +19.5 77 +29 +29 душно 1007.9 1005.7
02 12.07 З 5 н/о н/о +24.4 +19.7 75 +30 +30 очень
душно
1007.8 1005.6
03 12.07 З 7 20 км 8/8 300 м
[Cu Sc Ac trans Ci sp]
+25.2 +19.8 72 +31 +32 очень
душно
1007.5 1005.3
04 12.07 СЗ 6 н/о н/о +25.2 +20.2 74 +31 +31 очень
душно
1007.3 1005.1
05 12.07 СЗ 7 н/о н/о +26.1 +20.2 70 +32 +32 очень
душно
1007.0 1004.8
06 12.07 СЗ 6 25 км 9/3 300 м
[Cu med, cong Ci sp]
+25.4 +20.4 74 +31 +35 очень
душно
1007.0 1004.8
07 12.07 СЗ 5 н/о н/о +25.2 +20.2 74 +31 +31 очень
душно
1006.5 1004.3
08 12.07 СЗ 5 н/о н/о +24.7 +20.4 77 +31 +31 очень
душно
1006.2 1004.0
09 12.07 СЗ 4 25 км 9/1 300 м
[Cu hum Ci sp]
+23.7 +20.5 82 +29 +30 душно 1006.1 1003.9
10 12.07 З 3 н/о н/о +23.3 +20.6 85 +31 +31 очень
душно
1006.3 1004.1
11 12.07 З 3 н/о н/о +23.1 +20.8 87 +31 +31 очень
душно
1006.8 1004.6
12 12.07 СЗ 3 20 км 9/3 200 м
[Cu hum Ac trans Ci sp]
+23.2 +20.9 87 +31 +31 очень
душно
1006.9 1004.7 +26.4
13 12.07 СЗ 3 н/о н/о +22.8 +20.9 89 +30 +30 очень
душно
1006.7 1004.5
14 12.07 СЗ 2 н/о н/о +23.0 +20.4 85 +30 +30 очень
душно
1007.2 1005.0
15 12.07 З 2 н/о н/о +23.0 +19.4 80 +29 +29 очень
душно
1006.4 1004.2
16 12.07 З 2 н/о н/о +22.6 +20.3 87 +29 +29 очень
душно
1006.1 1003.9
17 12.07 СЗ 3 н/о н/о +22.5 +20.6 89 +29 +29 очень
душно
1006.1 1003.9
18 12.07 СЗ 3 20 км слаб. дождь 10/1
[Cu hum Ac As]
+22.5 +20.4 88 +29 +29 очень
душно
1005.8 1003.6 0.0
19 12.07 З 2 н/о н/о +22.3 +20.4 89 +29 +29 очень
душно
1005.5 1003.3
20 12.07 СЗ 1 н/о н/о +22.5 +19.5 83 +29 +29 очень
душно
1005.1 1002.9
21 12.07 С 1 20 км слаб. дождь 10/1
[Cu hum Ac As]
+22.3 +20.4 89 +29 +29 очень
душно
1005.0 1002.8
22 12.07 В 1 н/о н/о +22.2 +20.5 90 +29 +29 очень
душно
1004.8 1002.6
23 12.07 В 1 н/о н/о +22.6 +20.9 90 +30 +30 очень
душно
1005.0 1002.8
00 13.07 В 1 15 км слаб. дождь 10/5 300 м
[Cu med, cong Ac As]
+23.0 +21.1 89 +31 +33 очень
душно
1004.8 1002.6 +21.9 0.5
01 13.07 СВ 2 н/о н/о +22.4 +21.2 93 +29 +29 очень
душно
1005.0 1002.8
02 13.07 В 2 н/о н/о +21.6 +20.4 93 +27 +27 душно 1004.5 1002.3
03 13.07 ЮВ 3 10 км слаб. дождь 10/6 300 м
[Frnb As op]
+21.1 +19.9 93 +26 +27 душно 1004.1 1001.8
04 13.07 В 2 н/о н/о +20.8 +19.6 93 +26 +26 душно 1002.6 1000.3
05 13.07 В 4 н/о н/о +20.0 +18.8 93 +23 +23 комфорт 1001.6 999.3
06 13.07 В 3 5000 м ливневой дождь 10/10 300 м
[Cu med, cong]
+20.4 +19.4 94 +25 +25 комфорт 1000.7 998.5 17
07 13.07 В 4 н/о н/о +20.6 +20.0 96 +25 +25 комфорт 1000.1 997.9
08 13.07 В 3 н/о н/о +20.7 +19.9 95 +26 +26 душно 999.8 997.6
09 13.07 В 3 10 км слаб. ливневой дождь 10/10 100 м
[Cu med, cong]
+20.8 +19.8 94 +26 +26 душно 999.8 997.6
10 13.07 В 2 н/о н/о +21.1 +20.1 94 +26 +26 душно 1000.0 997.8
11 13.07 В 3 н/о н/о +20.8 +20.3 97 +26 +26 душно 1000.1 997.9
12 13.07 В 2 8000 м слаб. ливневой дождь 10/10 100 м
[Cu med, cong]
+20.8 +20.5 98 +26 +26 душно 1000.2 998.0 +23.1 21
13 13.07 В 2 н/о н/о +21.3 +20.8 97 +27 +27 душно 999.9 997.7
14 13.07 В 2 н/о н/о +21.7 +21.0 96 +28 +28 душно 1000.2 998.0
15 13.07 В 2 н/о н/о +21.5 +20.8 96 +27 +27 душно 999.9 997.7
16 13.07 СВ 2 н/о н/о +21.4 +20.7 96 +27 +27 душно 1000.2 998.0
17 13.07 С 2 н/о н/о +21.4 +20.7 96 +27 +27 душно 1000.2 998.0
18 13.07 С 1 8000 м слаб. ливневой дождь 10/10 100 м
[Cu med, cong]
+21.4 +20.7 96 +27 +27 душно 1000.1 997.9 0.5
19 13.07 С 1 н/о н/о +21.3 +20.8 97 +27 +27 душно 999.7 997.5
20 13.07 ЮЗ 2 н/о н/о +21.4 +20.9 97 +27 +27 душно 1000.0 997.8
22 13.07 С 1 н/о н/о +21.9 +20.9 94 +28 +28 душно 1000.6 998.4
23 13.07 штиль 0 н/о н/о +22.1 +20.9 93 +29 +29 очень
душно
1001.2 999.0
00 14.07 Ю 1 10 км в посл. час ливневой дождь 10/5 300 м
[Cu med, cong Ac As]
+22.6 +20.9 90 +30 +32 очень
душно
1001.2 999.0 +20.8 0.5
01 14.07 ЮВ 1 н/о н/о +22.8 +20.9 89 +30 +30 очень
душно
1001.6 999.4
02 14.07 В 1 н/о н/о +23.3 +21.6 90 +31 +31 очень
душно
1001.4 999.2
03 14.07 З 3 10 км слаб. ливневой дождь 10/10 200 м
[Cu med, cong]
+23.0 +21.5 91 +31 +31 очень
душно
1001.6 999.4
04 14.07 СЗ 2 н/о н/о +23.7 +21.4 87 +30 +30 очень
душно
1001.1 998.9
05 14.07 З 2 н/о н/о +23.9 +21.2 85 +30 +30 очень
душно
1001.4 999.2
06 14.07 ЮЗ 1 10 км {ливн. осадки} 10/10 300 м
[Cu med, cong]
+24.1 +21.2 84 +30 +30 очень
душно
1001.5 999.3 0.0
07 14.07 В 2 н/о н/о +24.2 +21.5 85 +31 +31 очень
душно
1001.7 999.5
08 14.07 С 1 н/о н/о +24.6 +21.5 83 +31 +31 очень
душно
1001.6 999.4
09 14.07 СВ 2 20 км {ливн. осадки} 9/9 300 м
[Cu med, cong]
+24.4 +21.5 84 +31 +31 очень
душно
1001.8 999.6
10 14.07 СВ 3 н/о н/о +24.6 +20.3 77 +30 +30 очень
душно
1002.2 1000.0
11 14.07 СВ 1 н/о н/о +24.0 +20.3 80 +30 +30 очень
душно
1002.9 1000.7
12 14.07 С 1 20 км {ливн. осадки} 9/9
[Sc diur, vesp]
+23.9 +20.8 83 +30 +30 очень
душно
1003.7 1001.5 +25.1 0.0
13 14.07 СЗ 1 н/о н/о +23.2 +20.7 86 +31 +31 очень
душно
1004.3 1002.1
14 14.07 СЗ 2 н/о н/о +22.9 +20.8 88 +30 +30 очень
душно
1004.9 1002.7
15 14.07 СЗ 2 н/о н/о +22.6 +20.9 90 +30 +30 очень
душно
1005.0 1002.8
16 14.07 С 1 н/о н/о +22.3 +20.9 92 +29 +29 очень
душно
1004.7 1002.5
17 14.07 СЗ 1 н/о н/о +21.8 +20.8 94 +28 +28 душно 1004.7 1002.5
18 14.07 З 2 20 км 9/1
[Cu hum Ac trans Ci sp]
+22.0 +20.8 93 +28 +28 душно 1004.7 1002.5
19 14.07 З 2 н/о н/о +21.9 +20.9 94 +28 +28 душно 1004.7 1002.5
20 14.07 СЗ 2 н/о н/о +22.1 +21.1 94 +29 +29 очень
душно
1005.7 1003.5
21 14.07 С 3 15 км 9/3 300 м
[Cu hum Ac trans Cc]
+22.2 +21.0 93 +29 +29 очень
душно
1006.0 1003.8
22 14.07 С 2 н/о н/о +22.7 +21.2 91 +30 +30 очень
душно
1006.6 1004.4
23 14.07 З 1 н/о н/о +23.8 +20.9 84 +30 +30 очень
душно
1006.7 1004.5
00 15.07 СЗ 3 15 км 8/4 300 м
[Cu hum Ac trans Cc]
+24.4 +21.1 82 +31 +34 очень
душно
1006.6 1004.4 +21.7
01 15.07 З 3 н/о н/о +25.6 +21.9 80 +33 +33 очень
душно
1006.9 1004.7
02 15.07 З 3 н/о н/о +26.1 +21.5 76 +33 +33 очень
душно
1006.6 1004.4
03 15.07 З 4 25 км 3/1
[Cu hum Ci fib]
+27.3 +22.0 73 +35 +49 очень
душно
1006.7 1004.5
04 15.07 СЗ 4 н/о н/о +28.1 +22.1 70 +37 +37 очень
душно
1007.0 1004.8
05 15.07 СЗ 4 н/о н/о +27.1 +21.4 71 +34 +34 очень
душно
1007.0 1004.8
06 15.07 СЗ 3 25 км 8/1
[Cu hum Ci fib]
+28.0 +22.3 71 +37 +45 очень
душно
1006.8 1004.6
07 15.07 З 3 н/о н/о +27.0 +22.0 74 +35 +35 очень
душно
1006.5 1004.3
08 15.07 СЗ 4 н/о н/о +27.2 +21.9 73 +35 +35 очень
душно
1006.5 1004.3
09 15.07 З 2 25 км 8/3
[Cu med, cong Ci fib]
+26.8 +21.6 73 +34 +35 очень
душно
1006.4 1004.2
10 15.07 З 2 н/о н/о +25.8 +21.3 76 +33 +33 очень
душно
1006.7 1004.5
11 15.07 В 2 н/о н/о +25.3 +21.4 79 +32 +32 очень
душно
1007.2 1005.0
12 15.07 В 2 25 км 3/1
[Cu hum Ci fib]
+25.2 +20.0 73 +31 +31 очень
душно
1007.9 1005.7 +28.7
13 15.07 В 1 н/о н/о +24.5 +20.2 77 +30 +30 очень
душно
1008.7 1006.5
14 15.07 В 1 н/о н/о +24.2 +20.3 79 +30 +30 очень
душно
1009.1 1006.9
15 15.07 В 1 н/о н/о +23.7 +20.5 82 +29 +29 душно 1009.3 1007.1
16 15.07 С 1 н/о н/о +24.1 +20.2 79 +30 +30 очень
душно
1009.2 1007.0
17 15.07 С 2 н/о н/о +23.5 +20.5 83 +29 +29 душно 1009.0 1006.8
18 15.07 С 2 15 км 8/8
[Sc]
+23.2 +20.9 87 +31 +31 очень
душно
1009.2 1007.0
19 15.07 СВ 1 н/о н/о +23.2 +21.3 89 +31 +31 очень
душно
1009.3 1007.1
20 15.07 С 1 н/о н/о +23.0 +21.1 89 +31 +31 очень
душно
1009.5 1007.3
21 15.07 С 1 15 км 3/3
[Cu Sc]
+23.1 +21.2 89 +31 +31 очень
душно
1009.7 1007.5
22 15.07 В 1 н/о н/о +23.5 +21.4 88 +30 +30 очень
душно
1010.2 1008.0
23 15.07 В 2 н/о н/о +24.2 +21.7 86 +31 +31 очень
душно
1010.5 1008.3
00 16.07 В 1 10 км 9/9 200 м
[Cu Sc]
+24.3 +21.6 85 +31 +32 очень
душно
1010.8 1008.6 +22.7
01 16.07 В 2 н/о н/о +26.4 +22.3 78 +34 +34 очень
душно
1010.8 1008.6
02 16.07 В 2 н/о н/о +28.1 +22.6 72 +37 +37 очень
душно
1010.8 1008.6
03 16.07 В 2 15 км 5/5
[Cu med, cong]
+27.9 +21.5 68 +36 +47 очень
душно
1010.9 1008.7
04 16.07 В 2 н/о н/о +28.6 +23.1 72 +38 +38 очень
душно
1010.6 1008.4
05 16.07 В 2 н/о н/о +28.4 +21.9 68 +37 +37 очень
душно
1010.0 1007.8
06 16.07 СЗ 5 15 км 1/1
[Cu med, cong]
+28.5 +22.0 68 +37 +44 очень
душно
1009.6 1007.4
07 16.07 СЗ 4 н/о н/о +29.4 +22.1 65 +38 +38 очень
душно
1009.4 1007.2
08 16.07 СЗ 3 н/о н/о +28.6 +22.1 68 +37 +37 очень
душно
1009.4 1007.2
09 16.07 СЗ 3 15 км 1/1
[Cu hum]
+27.9 +21.7 69 +36 +37 очень
душно
1009.4 1007.2
10 16.07 З 1 н/о н/о +26.7 +22.1 76 +35 +35 очень
душно
1009.5 1007.3
11 16.07 В 2 н/о н/о +26.3 +22.4 79 +34 +34 очень
душно
1010.2 1008.0
12 16.07 В 2 15 км 1/1
[Cu hum]
+25.9 +20.9 74 +32 +32 очень
душно
1011.2 1009.0 +30.3
13 16.07 В 1 н/о н/о +25.0 +20.9 78 +31 +31 очень
душно
1011.8 1009.6
14 16.07 В 1 н/о н/о +24.6 +20.7 79 +31 +31 очень
душно
1011.8 1009.6
15 16.07 В 2 н/о н/о +24.3 +21.0 82 +31 +31 очень
душно
1011.6 1009.4
16 16.07 ЮВ 1 н/о н/о +24.6 +21.3 82 +31 +31 очень
душно
1011.5 1009.3
17 16.07 В 1 н/о н/о +24.8 +21.5 82 +32 +32 очень
душно
1011.1 1008.9
18 16.07 СВ 1 10 км 9/9
[Cu med, cong]
+24.7 +22.0 85 +32 +32 очень
душно
1011.3 1009.1
19 16.07 В 2 н/о н/о +24.5 +22.2 87 +32 +32 очень
душно
1011.2 1009.0
20 16.07 В 2 н/о н/о +24.7 +22.2 86 +32 +32 очень
душно
1011.5 1009.3
21 16.07 В 2 10 км 10/10 300 м
[Cu med, cong]
+24.6 +22.3 87 +32 +32 очень
душно
1011.9 1009.7
22 16.07 В 2 н/о н/о +24.5 +22.6 89 +32 +32 очень
душно
1012.2 1010.0
23 16.07 В 2 н/о н/о +25.2 +22.9 87 +33 +33 очень
душно
1012.6 1010.4
00 17.07 В 2 5000 м слаб. ливневой дождь 10/9 200 м
[Cu med, cong Ac As]
+25.0 +22.9 88 +33 +33 очень
душно
1012.5 1010.3 +24.3 0.0
01 17.07 В 2 н/о н/о +26.4 +23.1 82 +35 +35 очень
душно
1012.4 1010.2
02 17.07 ЮВ 2 н/о н/о +27.2 +23.0 78 +36 +36 очень
душно
1012.2 1010.0
03 17.07 В 3 10 км {ливн. осадки} 9/3 300 м
[Cu hum Ci fib]
+27.8 +22.5 73 +37 +48 очень
душно
1011.8 1009.6
04 17.07 В 2 н/о н/о +27.7 +22.6 74 +37 +37 очень
душно
1011.7 1009.5
05 17.07 В 2 н/о н/о +27.8 +22.7 74 +37 +37 очень
душно
1011.6 1009.4
06 17.07 В 3 10 км {ливн. осадки} 9/9
[Cu med, cong]
+27.5 +22.2 73 +36 +37 очень
душно
1011.1 1008.9 0.0
07 17.07 ЮВ 2 н/о н/о +27.0 +22.6 77 +36 +36 очень
душно
1011.0 1008.8
08 17.07 ЮВ 2 н/о н/о +26.7 +23.0 80 +36 +36 очень
душно
1011.0 1008.8
09 17.07 В 2 10 км слаб. ливневой дождь 10/6
[Cu med, cong Ac As]
+25.7 +23.6 88 +35 +35 очень
душно
1010.7 1008.5
11 17.07 В 2 н/о н/о +25.7 +23.6 88 +35 +35 очень
душно
1011.7 1009.5
12 17.07 В 2 8000 м дымка {ливн. осадки} 10/5 300 м
[Cu Sc Ac As]
+25.6 +23.8 90 +35 +35 очень
душно
1012.0 1009.8 +28.6 0.0
13 17.07 В 2 н/о н/о +25.4 +24.0 92 +35 +35 очень
душно
1011.6 1009.4
14 17.07 В 2 н/о н/о +25.3 +24.1 93 +35 +35 очень
душно
1011.7 1009.5
16 17.07 В 2 н/о н/о +25.4 +24.0 92 +35 +35 очень
душно
1011.1 1008.9
17 17.07 В 3 н/о н/о +25.3 +24.1 93 +35 +35 очень
душно
1011.0 1008.8
18 17.07 В 2 8000 м дымка {ливн. осадки} 10/8 200 м
[Cu Sc Ac As]
+25.2 +24.0 93 +35 +35 очень
душно
1010.7 1008.5 0.5
19 17.07 В 3 н/о н/о +25.3 +24.3 94 +35 +35 очень
душно
1010.4 1008.2
20 17.07 В 2 н/о н/о +25.2 +24.2 94 +35 +35 очень
душно
1010.4 1008.2
21 17.07 В 2 10 км 10/5
[Cu Sc Ac As]
+25.1 +24.1 94 +35 +35 очень
душно
1010.7 1008.5
22 17.07 В 4 н/о н/о +25.4 +24.4 94 +35 +35 очень
душно
1010.4 1008.2
23 17.07 В 4 н/о н/о +25.8 +24.4 92 +36 +36 очень
душно
1010.2 1008.0
00 18.07 В 1 5000 м гроза, ливневой дождь 10/10 300 м
[Cb cap]
+25.0 +24.8 99 +35 +35 очень
душно
1010.7 1008.5 +25.0 19
01 18.07 В 2 н/о н/о +24.8 +24.6 99 +35 +35 очень
душно
1010.0 1007.8
02 18.07 В 2 н/о н/о +25.0 +24.5 97 +35 +35 очень
душно
1010.4 1008.2
03 18.07 В 2 15 км слаб. ливневой дождь {гроза} 10/10 300 м
[Cu med, cong]
+25.1 +24.4 96 +35 +35 очень
душно
1010.4 1008.2
04 18.07 В 2 н/о н/о +25.2 +24.3 95 +35 +35 очень
душно
1010.2 1008.0
05 18.07 В 2 н/о н/о +25.8 +24.6 93 +36 +36 очень
душно
1009.9 1007.7
06 18.07 В 2 15 км в посл. час ливневой дождь {гроза} 10/10 300 м
[Cu med, cong]
+25.2 +24.3 95 +35 +35 очень
душно
1009.7 1007.5 8
07 18.07 В 3 н/о н/о +25.4 +24.0 92 +35 +35 очень
душно
1009.5 1007.3
08 18.07 В 1 н/о н/о +24.3 +23.8 97 +33 +33 очень
душно
1009.6 1007.4
09 18.07 В 2 10 км слаб. ливневой дождь 10/9 100 м
[Cu med, cong Ac As]
+24.4 +23.7 96 +33 +33 очень
душно
1009.2 1007.0
10 18.07 В 3 н/о н/о +24.4 +23.9 97 +33 +33 очень
душно
1008.8 1006.6
11 18.07 В 3 н/о н/о +24.6 +23.9 96 +34 +34 очень
душно
1009.5 1007.3
12 18.07 С 3 1000 м сильн. ливневой дождь 10/10
[Cu med, cong]
+24.0 +23.8 99 +33 +33 очень
душно
1011.4 1009.2 +25.8 77
14 18.07 С 2 н/о н/о +23.8 +23.6 99 +32 +32 очень
душно
1011.6 1009.4
15 18.07 СВ 2 н/о н/о +23.8 +23.6 99 +32 +32 очень
душно
1010.9 1008.7
16 18.07 В 2 н/о н/о +23.7 +23.7 100 +32 +32 очень
душно
1010.4 1008.2
18 18.07 В 3 10 км слаб. ливневой дождь 10/10 100 м
[Cu med, cong]
+23.9 +23.4 97 +32 +32 очень
душно
1009.6 1007.4 51
19 18.07 В 3 н/о н/о +24.0 +23.5 97 +32 +32 очень
душно
1009.7 1007.5
20 18.07 В 2 н/о н/о +24.1 +23.4 96 +32 +32 очень
душно
1010.0 1007.8
21 18.07 В 3 10 км слаб. ливневой дождь 10/10 200 м
[Cu med, cong]
+24.0 +23.5 97 +32 +32 очень
душно
1010.5 1008.3

 

Местоположение метеостанции Симоносеки (Япония): широта 33.95 долгота 130.93 высота над уровнем моря 19 м.

В архиве по умолчанию представлена погода в Симоносеки за последнюю неделю. Архивные данные за месяц целиком и за предыдущие месяцы, начиная с января 2011 года, Вы можете получить, выбрав интересующий диапазон дат из раскрывающегося списка и нажав кнопку "Ввод!".


*Определитесь, кто Вы:
робот инопланетянин человек

Внимание! Время в таблицах - всемирное. Для получения местного времени необходимо прибавить поправку, которая равна 9 ч.

Смотрите также архив погоды в соседних городах и на ближайших метеорологических станциях:

Погода в Иидзуке (Япония) (40 км)
Погода в Ямагути (Япония) (54 км)
Погода в Фукуоке (Япония) (65 км)
Погода в Хаги (Япония) (68 км)
Погода в Хите (Япония) (70 км)
Погода в Саге (Япония) (96 км)
Погода в Оите (Япония) (102 км)
Погода на Асо (Япония) (120 км)
Погода в Кумамото (Япония) (128 км)
Погода в Сасебо (Япония) (142 км)

Пояснения к столбцам:

Ветер - указаны скорость ветра в м/с - средняя за 10 мин, порывы в срок и между сроками (в фигурных скобках) и направление, откуда дует ветер: С - северный, СВ - северо-восточный, В - восточный, ЮВ - юго-восточный, Ю - южный, ЮЗ - юго-западный, З - западный, СЗ - северо-западный.
Видимость - горизонтальная дальность видимости в метрах или километрах. При видимости от 1 до 10 км при отсутствии осадков обычно наблюдается дымка, при ухудшении видимости до 1 км и менее - туман. В сухую погоду видимость может ухудшаться дымом, пылью или мглою.
Явления - указаны атмосферные явления, наблюдавшиеся в срок или в последний час перед сроком; фигурными скобками обозначены явления, наблюдавшиеся между сроками (за 1-3 часа до срока); квадратными скобками обозначены град или гололедные отложения с указанием их диаметра в мм.
Облачность - указаны через наклонную черту общая и нижняя облачность в баллах и высота нижней границы облаков в метрах; квадратными скобками обозначены формы облаков: Ci - перистые, Cs - перисто-слоистые, Cc - перисто-кучевые, Ac - высококучевые, As - высокослоистые, Sc - слоисто-кучевые, Ns - слоисто-дождевые, Cu - кучевые, Cb - кучево-дождевые. Подробнее классификацию облаков см. в Атласе облаков (PDF).
T - Температура воздуха - температура, измеренная на высоте 2 м над землей.
Td - Температура точки росы - температура, при понижении до которой содержащийся в воздухе водяной пар достигнет насыщения.
f - Относительная влажность воздуха - влажноcть воздуха, измеренная на высоте 2 м над землей.
Te - Эффективная температура - температура, которую ощущает одетый по сезону человек в тени. Характеристика душности погоды. При расчете учитывается влияние влажности воздуха и скорости ветра на теплоощущения человека.
Tes - Эффективная температура на солнце - температура, которую ощущает человек, с поправкой на солнечный нагрев. Характеристика знойности погоды. Зависит от высоты солнца над горизонтом, облачности и скорости ветра. Ночью, в пасмурную погоду, а также при ветре 12 м/с и более поправка равна нулю.
P - Атмосферное давление - приведенное к уровню моря атмосферное давление.
Po - Атмосферное давление - измеренное на уровне метеостанции атмосферное давление.
Tmin - Минимальная температура - минимум температуры воздуха на высоте 2 м над землей.
Tmax - Максимальная температура - максимум температуры воздуха на высоте 2 м над землей.
R - Количество осадков - Количество выпавших осадков за период времени, мм. При наведении курсора мыши на число - период времени, за который выпало указанное количество осадков.
R24 - Количество осадков - Количество выпавших осадков за 24 часа, мм.
S - Снежный покров - Высота снежного покрова, см. При наведении курсора мыши на число - состояние снежного покрова и степень покрытия местности в баллах.